Temperature
18 17 17 17 16 16 16 16 16 16 16 15 15 15 15 15 15 15 15 15 15 14 14 14 14 14 14 14 14 14 14 14 14 14 14 14 14 14 15 15 15 15 15
17 17 17 16 16 16 16 16 16 16 16 15 15 15 15 15 15 15 15 15 15 15 14 14 14 14 14 14 14 14 14 14 14 14 14 14 14 14 14 14 14 14 15
17 17 16 16 16 16 16 16 16 16 15 15 15 15 15 15 15 15 15 15 15 14 14 14 14 14 14 14 14 14 14 14 14 14 14 14 14 14 14 14 14 14 14
17 16 16 16 16 16 16 16 15 15 15 15 15 15 15 15 15 15 15 14 14 14 14 14 14 14 14 14 14 14 14 14 14 14 14 14 14 14 14 14 14 14 14
16 16 16 16 15 15 15 15 15 15 15 15 15 15 14 14 14 14 14 14 14 14 14 14 14 14 14 14 14 14 14 14 14 14 14 13 13 13 13 14 13 13 13
16 16 16 15 15 15 15 15 15 15 14 14 14 14 14 14 14 14 14 14 14 14 14 14 14 14 14 14 14 14 14 14 14 13 13 13 13 13 13 13 13 13 13
16 15 15 15 15 15 14 14 14 14 14 14 14 14 13 13 13 13 13 13 13 13 13 13 13 13 13 13 13 13 13 13 13 13 13 13 13 13 13 13 13 13 13
16 15 15 15 14 14 14 14 14 13 13 13 13 13 13 13 13 13 13 13 13 13 13 13 13 13 13 13 13 13 13 13 13 13 13 13 13 13 13 13 13 13 13
15 15 15 14 14 14 14 13 13 13 13 12 12 12 12 12 12 12 12 12 12 12 12 12 12 12 12 12 12 13 13 13 13 13 13 13 13 13 13 13 13 13 12
15 14 14 14 14 13 13 13 13 12 12 12 12 12 11 11 11 11 11 11 11 12 12 12 12 12 12 12 12 12 12 13 13 13 13 13 13 13 13 12 12 12 12
14 14 14 13 13 13 12 12 12 12 12 12 11 11 11 11 11 11 11 11 11 11 11 11 11 11 11 11 11 11 12 12 12 12 12 12 12 12 12 12 12 12 12
14 13 13 13 12 12 12 12 12 11 11 11 11 11 11 10 10 10 10 10 10 10 10 10 10 10 11 11 11 11 11 11 11 11 12 12 12 12 12 12 12 12 12
13 13 13 12 12 12 12 11 11 11 11 10 10 10 10 10 10 10 10 10 9 9 9 9 10 10 10 10 10 10 11 11 11 11 11 11 11 11 11 11 12 12 11
13 13 12 12 12 11 11 11 11 10 10 10 10 10 9 9 9 9 9 9 9 9 9 9 9 9 9 9 10 10 10 10 10 10 10 10 11 11 11 11 11 11 11
13 12 12 12 11 11 11 11 10 10 10 10 9 9 9 9 9 8 8 8 8 8 8 8 8 8 8 9 9 9 9 9 9 9 9 9 10 10 10 10 10 10 10
12 12 12 11 11 11 11 10 10 10 10 9 9 9 9 8 8 8 8 8 8 8 8 8 7 7 7 7 8 8 8 8 8 8 8 9 9 9 9 10 10 10 10
12 12 11 11 11 11 10 10 10 10 9 9 9 9 8 8 8 7 7 7 7 7 7 7 7 7 7 7 7 7 7 7 7 7 8 8 8 8 9 9 9 9 10
12 11 11 11 11 10 10 10 9 9 9 9 9 8 8 8 7 7 7 7 7 7 7 6 6 6 6 6 6 6 6 6 7 7 7 7 7 8 8 8 8 9 9
11 11 11 10 10 10 10 9 9 9 9 8 8 8 8 7 7 7 7 6 6 6 6 6 6 6 6 5 6 6 6 6 6 6 6 7 7 7 7 7 8 8 8
11 11 10 10 10 10 9 9 9 8 8 8 8 7 7 7 7 6 6 6 6 6 6 5 5 5 5 5 5 5 5 5 5 5 6 6 6 6 6 7 7 7 8
11 10 10 10 10 9 9 9 8 8 8 8 7 7 7 6 6 6 6 6 5 5 5 5 5 5 5 5 5 5 5 5 5 5 5 5 5 6 6 6 6 7 7
10 10 10 9 9 9 9 8 8 8 7 7 7 7 6 6 6 6 5 5 5 5 5 5 5 5 4 4 4 4 4 4 4 4 4 5 5 5 5 6 6 6 7
10 10 9 9 9 8 8 8 8 7 7 7 7 6 6 6 6 5 5 5 5 5 5 4 4 4 4 4 4 4 4 4 4 4 4 4 4 4 5 5 5 6 6
9 9 9 8 8 8 8 7 7 7 7 6 6 6 6 5 5 5 5 5 4 4 4 4 4 4 4 3 3 3 3 3 3 3 3 3 4 4 4 5 5 5 6
9 8 8 8 8 7 7 7 7 6 6 6 6 5 5 5 5 4 4 4 4 4 3 3 3 3 3 3 3 3 3 3 3 3 3 3 3 3 4 4 5 5 5
8 8 7 7 7 7 6 6 6 6 5 5 5 5 5 4 4 4 4 3 3 3 3 3 3 2 2 2 2 2 2 2 2 2 2 3 3 3 3 4 4 5 5
Wind_Speed
3 2 2 1 1 2 2 1 1 2 2 2 2 2 2 3 2 1 2 2 2 3 2 1 2 1 1 1 0 1 1 2 2 2 1 1 1 1 1 2 3 4 4
3 3 2 2 2 2 2 2 2 2 2 2 2 2 2 3 3 3 3 3 2 3 3 2 3 2 1 1 0 0 1 2 2 2 1 1 1 2 2 2 2 3 4
5 5 4 3 3 2 2 3 3 3 3 3 3 2 2 2 3 3 3 3 3 4 3 3 3 2 2 2 1 1 1 1 2 2 2 1 1 1 1 1 1 0 2
6 6 5 3 3 2 3 3 3 3 3 4 3 3 3 2 2 2 2 2 3 4 3 3 4 4 4 3 2 3 2 1 1 2 2 2 2 1 1 2 1 1 1
6 5 4 3 3 4 4 4 4 4 4 4 4 4 4 3 2 1 1 1 2 3 4 4 4 5 6 5 3 3 3 2 2 2 3 2 2 2 3 2 2 1 1
6 4 3 4 4 4 4 4 5 5 5 5 5 4 5 4 6 4 1 1 2 2 4 4 5 4 5 6 6 5 5 4 4 3 3 4 4 4 3 3 3 2 2
5 4 3 4 4 4 4 5 5 4 4 5 5 5 5 6 8 7 5 1 2 3 3 4 4 4 4 4 6 6 7 7 7 5 5 6 5 5 4 4 4 4 4
5 4 3 3 3 3 4 4 4 3 4 4 5 5 5 8 11 9 8 3 3 4 4 4 4 6 5 4 5 5 6 6 7 6 6 7 7 5 5 6 5 4 1
4 3 2 3 3 2 3 2 2 3 3 3 4 5 5 7 11 11 8 3 4 5 5 4 4 5 8 7 4 6 7 7 8 9 10 9 10 9 6 3 3 3 3
4 3 3 3 3 2 0 1 1 1 2 3 4 4 4 5 10 12 9 3 4 5 6 6 7 8 11 8 4 5 7 8 6 6 6 8 7 7 9 7 6 5 3
4 4 3 2 2 2 1 0 0 1 3 4 4 4 4 5 7 10 9 3 3 4 5 6 6 12 14 13 8 6 9 8 6 6 6 5 5 5 5 5 6 6 6
4 3 2 2 1 2 2 0 0 1 2 3 4 5 4 5 5 7 9 7 5 3 5 5 7 14 15 15 10 9 11 8 4 4 4 5 5 6 6 6 7 8 8
4 3 2 2 1 1 2 1 0 1 1 2 2 3 5 5 6 9 10 10 9 4 5 10 12 14 13 10 11 12 8 4 4 5 6 6 6 6 5 4 4 5 4
5 4 3 3 2 1 1 1 1 1 2 2 3 4 5 5 5 5 5 6 7 6 6 9 12 11 8 9 9 7 5 4 5 6 6 6 4 4 5 5 5 5 4
5 4 4 3 3 3 2 3 3 4 5 4 4 4 4 5 7 9 6 5 5 6 7 5 4 5 5 6 6 5 5 4 5 5 5 5 5 5 5 5 5 5 6
5 4 4 4 3 3 3 3 6 6 7 7 7 6 6 9 11 11 11 11 12 11 6 4 5 5 6 6 7 6 6 5 5 5 6 6 6 6 6 5 5 6 7
6 6 4 4 4 4 4 3 5 6 7 8 9 9 9 11 11 12 12 12 11 9 4 5 5 6 6 6 6 6 6 7 5 5 6 7 7 7 7 7 7 7 7
6 7 6 5 5 5 5 5 4 4 5 5 7 10 12 12 12 12 12 9 6 5 4 5 6 7 6 7 7 6 6 6 6 5 6 6 6 7 7 8 8 9 8
6 5 5 5 5 5 5 5 5 5 5 6 6 7 10 10 10 11 9 4 5 6 6 6 6 7 7 7 7 7 7 6 7 6 6 6 6 6 7 8 9 11 9
6 9 7 5 5 5 5 5 5 6 6 6 6 7 5 4 5 6 5 5 6 6 7 7 7 7 7 7 7 7 7 7 7 7 7 6 6 6 7 8 9 8 9
6 6 8 5 5 6 6 6 7 6 7 7 7 9 9 6 7 7 7 6 7 7 8 8 7 7 7 7 7 8 9 8 7 7 7 7 7 7 7 7 8 9 8
6 6 5 6 6 6 6 7 7 7 8 8 7 8 11 7 6 7 7 8 8 8 8 7 8 7 7 7 8 8 9 8 8 8 8 8 7 7 7 7 7 7 8
6 6 6 6 6 8 8 7 7 7 8 8 8 7 7 7 7 8 8 8 8 8 7 7 8 8 7 7 8 8 9 9 8 8 9 9 8 8 8 8 8 8 8
6 6 6 6 6 6 7 7 7 8 8 8 8 7 7 8 8 9 9 8 8 8 7 7 8 11 12 10 9 9 10 11 10 9 10 10 10 9 8 9 9 9 8
6 6 6 6 7 7 7 7 7 7 7 7 7 8 8 8 8 8 8 8 9 9 10 9 8 9 12 14 13 12 16 18 17 13 9 9 11 10 10 10 9 9 8
6 6 6 6 6 6 6 7 7 7 7 8 8 8 8 8 8 8 8 8 8 9 9 9 10 12 14 13 15 17 19 19 18 18 12 10 11 10 10 9 10 10 10
Wind_Direction
113 102 92 84 74 75 56 3 348 349 326 289 272 249 236 242 244 246 282 290 302 310 317 310 293 288 317 332 39 84 149 158 203 273 279 301 303 247 204 213 223 216 221
122 107 94 71 57 46 9 335 337 355 358 335 317 297 271 255 244 237 262 270 275 285 283 287 285 275 291 299 316 273 221 192 184 237 281 283 260 241 232 223 216 223 218
101 94 77 64 57 37 7 349 352 354 360 5 8 351 309 280 262 255 256 264 263 266 262 251 257 237 256 264 245 252 255 217 181 198 243 253 266 254 232 249 214 289 229
97 89 76 61 57 41 25 19 13 15 18 8 359 343 324 326 326 310 282 279 281 281 273 256 250 229 225 231 235 244 241 221 194 197 230 242 247 253 183 201 230 271 249
98 88 76 61 54 44 36 25 19 20 20 8 4 355 348 345 335 323 304 323 304 301 299 278 262 245 235 223 218 225 212 210 205 213 232 232 229 212 212 203 207 236 278
105 100 86 69 59 46 33 26 24 15 9 12 8 360 356 354 343 340 343 324 324 315 311 302 288 270 267 256 246 226 203 200 207 212 227 225 230 220 209 196 190 191 249
110 99 85 76 62 41 33 33 23 10 8 7 1 1 351 341 352 354 350 341 310 303 301 309 309 298 277 269 270 260 245 235 213 203 214 228 227 218 199 203 206 201 219
111 103 93 85 72 50 43 30 12 5 5 360 358 359 358 354 357 353 351 354 324 307 293 286 293 300 299 283 269 266 261 256 243 229 224 231 230 220 203 204 203 202 232
125 126 128 118 100 70 44 14 1 9 4 358 358 5 4 350 359 360 1 351 335 323 314 309 301 291 297 296 281 271 272 271 260 244 238 240 237 226 203 175 173 177 225
166 170 163 145 133 128 140 325 346 7 357 359 6 2 1 350 360 8 11 10 341 329 327 324 319 321 317 307 277 265 269 271 267 264 255 254 247 238 215 199 197 195 202
178 166 160 161 170 178 178 222 350 15 10 2 356 345 345 342 352 3 4 8 332 327 327 324 320 324 324 316 293 260 261 271 263 249 251 253 250 241 230 215 203 202 207
165 163 172 188 195 154 146 153 24 42 14 349 344 336 328 327 335 340 347 348 339 319 308 305 306 316 316 315 302 281 283 281 262 248 245 249 247 243 238 227 218 217 219
162 177 193 196 203 173 167 191 308 355 337 314 320 317 313 316 320 327 333 334 333 323 300 304 308 313 315 309 300 294 291 269 256 248 243 246 244 242 239 235 229 221 226
177 198 202 198 221 229 213 202 204 237 259 279 289 291 297 304 304 307 311 315 319 318 310 309 312 312 308 300 305 298 280 260 255 255 254 251 246 240 237 227 226 218 224
189 202 205 205 211 227 238 229 223 231 222 231 244 250 269 289 286 291 301 298 297 295 309 315 317 317 318 315 309 298 286 275 265 263 264 261 253 248 246 227 221 218 222
194 207 208 210 215 220 238 272 263 254 271 271 259 256 256 261 282 294 299 300 303 304 312 307 302 300 298 299 302 302 296 280 270 268 267 257 252 248 249 234 219 221 229
198 208 211 214 218 223 224 236 275 294 299 298 291 289 284 286 290 292 294 300 304 307 296 289 285 284 286 287 284 282 286 284 273 266 269 268 258 252 249 238 226 227 230
203 212 211 215 220 225 227 232 236 252 280 290 290 288 289 289 289 290 292 302 306 303 275 277 281 279 278 283 283 279 279 285 280 270 268 272 266 257 254 246 230 226 228
205 213 217 219 223 228 232 236 239 244 250 262 279 290 287 288 289 290 296 277 277 283 281 277 275 276 276 278 280 276 274 275 278 273 265 269 271 265 260 255 243 230 225
214 225 222 221 227 234 237 239 244 248 252 257 263 268 279 286 284 287 283 270 266 269 270 272 273 272 273 273 277 275 274 271 271 270 264 259 263 261 261 262 252 239 231
213 228 233 232 230 233 236 239 242 243 248 253 257 259 259 258 260 265 267 266 263 266 267 267 268 270 270 269 270 271 269 268 265 265 265 260 258 262 257 258 258 246 236
211 219 224 229 234 237 242 242 243 245 247 252 259 266 269 258 254 259 261 263 262 261 261 263 267 265 263 264 266 270 270 268 265 264 265 263 259 258 255 253 256 252 240
211 219 227 235 238 246 250 248 246 246 249 251 253 257 260 256 257 259 262 263 264 266 265 263 267 270 267 263 260 259 264 264 261 259 263 264 261 259 253 250 249 248 244
211 218 228 238 243 245 249 252 251 251 252 253 253 254 255 257 260 261 262 264 266 267 267 266 267 268 270 273 270 264 261 261 261 258 258 260 259 260 257 247 242 240 237
212 223 233 240 245 248 251 254 255 256 257 257 258 259 260 260 261 263 264 265 268 270 270 270 271 272 273 274 275 273 268 265 264 263 258 258 256 254 255 246 239 237 234
220 228 236 240 243 246 249 253 256 257 258 261 261 260 261 264 265 267 266 267 270 272 273 273 271 272 274 277 277 276 273 268 265 261 255 256 254 253 250 245 237 230 226
Height
1536 1536 1536 1536 1536 1536 1536 1535 1535 1534 1533 1533 1532 1531 1531 1530 1529 1528 1527 1526 1525 1524 1523 1522 1521 1521 1520 1519 1519 1518 1517 1517 1516 1516 1516 1516 1516 1517 1517 1518 1518 1519 1520
1535 1535 1535 1535 1535 1535 1535 1534 1534 1533 1533 1532 1531 1530 1530 1529 1528 1527 1526 1525 1524 1523 1523 1522 1521 1520 1519 1519 1518 1517 1517 1516 1516 1515 1515 1515 1515 1515 1516 1516 1517 1517 1518
1534 1535 1535 1534 1534 1534 1534 1533 1533 1532 1531 1530 1530 1529 1528 1527 1527 1526 1525 1524 1523 1522 1522 1521 1520 1519 1518 1518 1517 1516 1515 1515 1514 1514 1513 1513 1514 1514 1514 1515 1515 1515 1516
1534 1534 1534 1534 1533 1533 1532 1532 1531 1530 1530 1529 1528 1527 1526 1526 1525 1524 1523 1522 1522 1521 1520 1519 1518 1518 1517 1516 1515 1514 1514 1513 1512 1512 1511 1511 1512 1512 1512 1512 1513 1513 1514
1533 1533 1533 1532 1532 1532 1531 1530 1530 1529 1528 1527 1526 1525 1524 1523 1523 1522 1521 1520 1519 1518 1517 1517 1516 1515 1514 1514 1513 1512 1511 1511 1510 1510 1509 1509 1509 1509 1510 1510 1511 1511 1511
1532 1532 1532 1531 1531 1530 1530 1529 1528 1527 1526 1525 1524 1523 1522 1521 1520 1519 1518 1517 1516 1515 1514 1513 1513 1512 1511 1511 1510 1509 1509 1508 1507 1507 1506 1506 1506 1507 1507 1508 1508 1508 1508
1531 1531 1531 1530 1530 1529 1528 1527 1526 1525 1524 1523 1522 1521 1520 1519 1518 1516 1515 1514 1513 1512 1511 1510 1509 1509 1508 1507 1506 1506 1505 1505 1505 1504 1503 1503 1503 1504 1504 1505 1505 1504 1505
1529 1529 1529 1529 1528 1528 1527 1526 1524 1523 1522 1521 1520 1518 1517 1516 1515 1513 1512 1511 1510 1509 1508 1506 1505 1504 1504 1503 1502 1501 1501 1501 1501 1500 1500 1499 1500 1500 1500 1501 1501 1502 1502
1528 1528 1528 1527 1527 1526 1525 1524 1523 1522 1520 1519 1517 1516 1515 1513 1512 1511 1509 1508 1506 1505 1504 1503 1502 1500 1500 1499 1498 1496 1496 1496 1496 1496 1495 1495 1495 1496 1496 1497 1497 1497 1497
1526 1526 1526 1525 1525 1524 1523 1522 1521 1520 1518 1517 1516 1514 1512 1511 1509 1507 1506 1504 1502 1501 1500 1499 1497 1496 1494 1494 1493 1491 1490 1490 1490 1490 1490 1490 1490 1491 1491 1492 1492 1493 1493
1524 1524 1524 1523 1523 1522 1521 1520 1519 1518 1517 1515 1514 1512 1510 1508 1506 1504 1503 1501 1499 1497 1496 1494 1493 1491 1489 1488 1488 1487 1486 1485 1485 1484 1484 1484 1484 1485 1485 1486 1487 1488 1488
1522 1521 1521 1521 1520 1520 1519 1518 1517 1515 1514 1512 1511 1509 1507 1506 1504 1501 1500 1498 1496 1494 1492 1490 1488 1486 1484 1483 1482 1481 1480 1479 1479 1478 1478 1477 1478 1478 1479 1480 1481 1482 1483
1519 1518 1518 1518 1517 1517 1516 1515 1514 1512 1511 1509 1508 1506 1504 1502 1501 1499 1496 1494 1492 1490 1488 1485 1483 1481 1478 1477 1475 1474 1474 1473 1472 1471 1471 1471 1471 1472 1473 1473 1474 1475 1476
1515 1515 1515 1515 1514 1514 1513 1512 1511 1509 1508 1506 1504 1502 1501 1499 1497 1495 1492 1490 1488 1485 1483 1480 1478 1475 1473 1471 1469 1468 1468 1467 1465 1465 1464 1464 1465 1465 1465 1466 1467 1468 1468
1511 1511 1511 1511 1510 1510 1509 1508 1507 1506 1504 1503 1501 1499 1497 1495 1493 1491 1488 1486 1483 1481 1477 1474 1471 1469 1467 1465 1463 1462 1461 1460 1459 1458 1458 1457 1457 1457 1457 1458 1460 1461 1461
1507 1507 1507 1507 1506 1505 1505 1504 1503 1502 1500 1499 1497 1496 1493 1491 1489 1486 1484 1482 1479 1476 1473 1470 1467 1464 1462 1460 1458 1456 1455 1454 1453 1452 1451 1450 1450 1449 1449 1450 1451 1452 1453
1503 1503 1502 1502 1501 1500 1500 1498 1497 1497 1496 1494 1493 1491 1489 1487 1484 1482 1479 1477 1474 1472 1469 1465 1463 1460 1458 1455 1453 1451 1449 1448 1447 1445 1444 1443 1442 1442 1442 1442 1443 1444 1445
1498 1498 1497 1497 1496 1495 1494 1493 1492 1491 1490 1488 1487 1486 1484 1482 1479 1477 1474 1471 1468 1466 1463 1460 1458 1455 1453 1450 1448 1445 1443 1442 1440 1438 1437 1437 1435 1434 1434 1433 1434 1435 1436
1493 1492 1492 1491 1491 1490 1489 1488 1487 1485 1484 1482 1481 1480 1478 1476 1473 1471 1469 1466 1462 1459 1457 1455 1452 1449 1447 1444 1442 1439 1437 1435 1433 1431 1430 1429 1428 1427 1426 1426 1426 1427 1428
1487 1487 1486 1485 1485 1484 1483 1482 1481 1479 1478 1476 1475 1473 1471 1469 1466 1464 1462 1459 1456 1453 1451 1448 1445 1443 1440 1437 1434 1432 1430 1428 1426 1424 1423 1421 1420 1420 1419 1418 1418 1418 1419
1481 1480 1480 1479 1478 1477 1476 1475 1474 1472 1471 1469 1468 1466 1464 1462 1459 1457 1454 1452 1449 1446 1444 1441 1438 1435 1432 1430 1427 1425 1422 1420 1418 1416 1415 1413 1412 1411 1410 1410 1410 1410 1411
1474 1474 1473 1472 1471 1470 1469 1468 1467 1465 1463 1461 1460 1459 1457 1455 1452 1449 1447 1444 1441 1439 1436 1433 1430 1427 1425 1422 1419 1417 1414 1412 1410 1408 1406 1405 1404 1403 1402 1401 1401 1402 1403
1467 1467 1466 1465 1464 1463 1462 1460 1459 1457 1455 1454 1452 1450 1448 1446 1444 1441 1438 1435 1433 1430 1427 1424 1421 1418 1415 1413 1410 1408 1405 1402 1401 1400 1398 1396 1395 1394 1393 1393 1393 1393 1394
1460 1459 1459 1458 1457 1455 1453 1452 1450 1449 1447 1446 1444 1442 1440 1438 1435 1432 1430 1427 1424 1421 1418 1415 1412 1408 1406 1403 1400 1397 1395 1393 1391 1390 1388 1386 1385 1384 1384 1383 1384 1384 1385
1453 1452 1451 1450 1449 1447 1445 1444 1442 1441 1439 1438 1436 1434 1431 1429 1426 1423 1420 1417 1414 1411 1408 1405 1402 1398 1395 1392 1389 1386 1384 1382 1380 1379 1378 1376 1375 1374 1374 1374 1374 1375 1377
1445 1445 1444 1442 1441 1439 1438 1436 1434 1433 1431 1429 1427 1425 1422 1419 1416 1414 1411 1408 1404 1401 1398 1394 1391 1387 1384 1381 1378 1375 1372 1370 1369 1368 1367 1366 1364 1364 1364 1364 1365 1366 1368